• în România
  • Lista ţărilor
  • Pe 7 zile
  • Temperatura apei
  • Hartă satelitară
  • Meteo pe hartă
  • Widget-uri
  • user-avatar
    Intrare

    Meteo pe oră la Saurimo

    Astăzi, 29 Martie, Miercuri

    Timp Temperatura Precipitaţii Vânt Presiune Umiditate
    00:00 +22°C° 1,7 mm 1 m/s 669 mmHg 94%
    01:00 +20°C° 0 mm 2 m/s 669 mmHg 95%
    02:00 +20°C° 1 mm 2 m/s 669 mmHg 95%
    03:00 +20°C° 1 mm 2 m/s 669 mmHg 95%
    04:00 +20°C° 1 mm 2 m/s 669 mmHg 95%
    05:00 +21°C° 1,2 mm 1 m/s 669 mmHg 95%
    06:00 +21°C° 1,2 mm 1 m/s 670 mmHg 95%
    07:00 +21°C° 0 mm 1 m/s 670 mmHg 92%
    08:00 +21°C° 0,1 mm 2 m/s 670 mmHg 88%
    09:00 +24°C° 0,1 mm 2 m/s 671 mmHg 84%
    10:00 +25°C° 0,1 mm 2 m/s 671 mmHg 80%
    11:00 +26°C° 0,4 mm 2 m/s 670 mmHg 78%
    12:00 +27°C° 0,4 mm 2 m/s 670 mmHg 75%
    13:00 +28°C° 0,4 mm 2 m/s 670 mmHg 72%
    14:00 +27°C° 0,6 mm 1 m/s 669 mmHg 74%
    15:00 +27°C° 0,6 mm 1 m/s 669 mmHg 77%
    16:00 +27°C° 0,6 mm 1 m/s 669 mmHg 79%
    17:00 +26°C° 2,4 mm 1 m/s 669 mmHg 84%
    18:00 +24°C° 2,4 mm 1 m/s 669 mmHg 89%
    19:00 +23°C° 2,4 mm 1 m/s 669 mmHg 94%
    20:00 +22°C° 1 mm 1 m/s 669 mmHg 95%
    21:00 +22°C° 1 mm 1 m/s 670 mmHg 96%
    22:00 +22°C° 1 mm 1 m/s 670 mmHg 97%
    23:00 +22°C° 0,5 mm 1 m/s 670 mmHg 97%

    Mâine, 30 Martie, Joi

    Timp Temperatura Precipitaţii Vânt Presiune Umiditate
    00:00 +22°C° 0,5 mm 1 m/s 670 mmHg 98%
    01:00 +22°C° 0,5 mm 1 m/s 670 mmHg 98%
    02:00 +22°C° 0,9 mm 1 m/s 670 mmHg 98%
    03:00 +20°C° 0,9 mm 0 m/s 669 mmHg 99%
    04:00 +20°C° 0,9 mm 0 m/s 669 mmHg 99%
    05:00 +20°C° 0,2 mm 0 m/s 670 mmHg 98%
    06:00 +20°C° 0,2 mm 0 m/s 670 mmHg 97%
    07:00 +20°C° 0,2 mm 0 m/s 671 mmHg 97%
    08:00 +22°C° 0,2 mm 1 m/s 671 mmHg 95%
    09:00 +23°C° 0,2 mm 1 m/s 671 mmHg 94%
    10:00 +23°C° 0,2 mm 1 m/s 672 mmHg 93%
    11:00 +23°C° 0,4 mm 1 m/s 671 mmHg 91%
    12:00 +23°C° 0,4 mm 1 m/s 670 mmHg 90%
    13:00 +24°C° 0,4 mm 1 m/s 670 mmHg 89%
    14:00 +24°C° 0,1 mm 1 m/s 670 mmHg 89%
    15:00 +24°C° 0,1 mm 1 m/s 670 mmHg 89%
    16:00 +24°C° 0,1 mm 1 m/s 669 mmHg 89%
    17:00 +23°C° 0,2 mm 1 m/s 670 mmHg 90%
    18:00 +22°C° 0,2 mm 1 m/s 670 mmHg 92%
    19:00 +22°C° 0,2 mm 1 m/s 671 mmHg 94%
    20:00 +21°C° 0,6 mm 1 m/s 671 mmHg 95%
    21:00 +21°C° 0,6 mm 1 m/s 671 mmHg 96%
    22:00 +19°C° 0,6 mm 0 m/s 671 mmHg 97%
    23:00 +19°C° 0,5 mm 0 m/s 671 mmHg 97%

    Poimâine, 31 Martie, Vineri

    Timp Temperatura Precipitaţii Vânt Presiune Umiditate
    00:00 +19°C° 0,5 mm 0 m/s 671 mmHg 97%
    01:00 +21°C° 0,5 mm 1 m/s 670 mmHg 98%
    02:00 +21°C° 0,5 mm 1 m/s 670 mmHg 98%
    03:00 +21°C° 0,5 mm 1 m/s 670 mmHg 98%
    04:00 +21°C° 0,5 mm 1 m/s 670 mmHg 98%
    05:00 +21°C° 1,9 mm 1 m/s 671 mmHg 98%
    06:00 +21°C° 1,9 mm 1 m/s 671 mmHg 98%
    07:00 +21°C° 1,9 mm 1 m/s 672 mmHg 97%
    08:00 +21°C° 7,7 mm 1 m/s 672 mmHg 97%
    09:00 +21°C° 7,7 mm 1 m/s 672 mmHg 97%
    10:00 +21°C° 7,7 mm 1 m/s 672 mmHg 97%
    11:00 +21°C° 1,3 mm 1 m/s 672 mmHg 95%
    12:00 +22°C° 1,3 mm 1 m/s 672 mmHg 93%
    13:00 +22°C° 1,3 mm 1 m/s 671 mmHg 90%
    14:00 +22°C° 1,1 mm 1 m/s 671 mmHg 90%
    15:00 +23°C° 1,1 mm 1 m/s 671 mmHg 89%
    16:00 +23°C° 1,1 mm 1 m/s 671 mmHg 89%
    17:00 +20°C° 0,9 mm 0 m/s 671 mmHg 92%
    18:00 +19°C° 0,9 mm 0 m/s 671 mmHg 95%
    19:00 +18°C° 0,9 mm 0 m/s 671 mmHg 97%
    20:00 +18°C° 0 mm 0 m/s 671 mmHg 97%
    21:00 +18°C° 0 mm 0 m/s 671 mmHg 97%
    22:00 +19°C° 0 mm 1 m/s 672 mmHg 97%
    23:00 +19°C° 0 mm 1 m/s 671 mmHg 97%

    1 Aprilie, Sâmbătă

    Timp Temperatura Precipitaţii Vânt Presiune Umiditate
    00:00 +19°C° 0 mm 1 m/s 671 mmHg 97%
    01:00 +19°C° 0 mm 1 m/s 671 mmHg 97%
    02:00 +19°C° 0 mm 1 m/s 671 mmHg 97%
    03:00 +19°C° 0 mm 1 m/s 671 mmHg 97%
    04:00 +19°C° 0 mm 1 m/s 670 mmHg 97%
    05:00 +19°C° 0 mm 1 m/s 671 mmHg 96%
    06:00 +19°C° 0 mm 1 m/s 671 mmHg 95%
    07:00 +20°C° 0 mm 1 m/s 672 mmHg 94%
    08:00 +22°C° 0 mm 1 m/s 672 mmHg 85%
    09:00 +24°C° 0 mm 1 m/s 673 mmHg 77%
    10:00 +26°C° 0 mm 1 m/s 673 mmHg 68%
    11:00 +26°C° 0 mm 2 m/s 673 mmHg 66%
    12:00 +27°C° 0 mm 2 m/s 672 mmHg 63%
    13:00 +28°C° 0 mm 2 m/s 671 mmHg 60%
    14:00 +27°C° 0,3 mm 2 m/s 671 mmHg 67%
    15:00 +26°C° 0,3 mm 2 m/s 670 mmHg 73%
    16:00 +25°C° 0,3 mm 2 m/s 670 mmHg 80%
    17:00 +24°C° 0,3 mm 2 m/s 670 mmHg 85%
    18:00 +21°C° 0,3 mm 2 m/s 671 mmHg 91%
    19:00 +20°C° 0,3 mm 2 m/s 671 mmHg 96%
    20:00 +20°C° 0,3 mm 1 m/s 671 mmHg 96%
    21:00 +20°C° 0,3 mm 1 m/s 671 mmHg 96%
    22:00 +20°C° 0,3 mm 1 m/s 671 mmHg 96%
    23:00 +20°C° 0,1 mm 1 m/s 671 mmHg 97%

    2 Aprilie, Duminică

    Timp Temperatura Precipitaţii Vânt Presiune Umiditate
    00:00 +19°C° 0,1 mm 1 m/s 671 mmHg 97%
    01:00 +19°C° 0,1 mm 1 m/s 670 mmHg 97%
    02:00 +19°C° 0,1 mm 1 m/s 670 mmHg 97%
    03:00 +19°C° 0,1 mm 1 m/s 670 mmHg 97%
    04:00 +19°C° 0,1 mm 1 m/s 670 mmHg 98%
    05:00 +19°C° 0 mm 1 m/s 670 mmHg 96%
    06:00 +20°C° 0 mm 1 m/s 671 mmHg 95%
    07:00 +20°C° 0 mm 1 m/s 671 mmHg 94%
    08:00 +21°C° 0 mm 2 m/s 672 mmHg 85%
    09:00 +24°C° 0 mm 2 m/s 672 mmHg 77%
    10:00 +26°C° 0 mm 3 m/s 672 mmHg 68%
    11:00 +27°C° 0 mm 3 m/s 672 mmHg 64%
    12:00 +28°C° 0 mm 2 m/s 671 mmHg 59%
    13:00 +30°C° 0 mm 2 m/s 671 mmHg 55%
    14:00 +29°C° 0,3 mm 2 m/s 670 mmHg 60%
    15:00 +29°C° 0,3 mm 2 m/s 670 mmHg 65%
    16:00 +28°C° 0,3 mm 1 m/s 670 mmHg 71%
    17:00 +26°C° 0,2 mm 1 m/s 670 mmHg 76%
    18:00 +25°C° 0,2 mm 1 m/s 670 mmHg 82%
    19:00 +23°C° 0,2 mm 1 m/s 670 mmHg 88%
    20:00 +22°C° 0 mm 1 m/s 670 mmHg 90%
    21:00 +22°C° 0 mm 1 m/s 670 mmHg 92%
    22:00 +22°C° 0 mm 1 m/s 670 mmHg 93%
    23:00 +21°C° 0 mm 1 m/s 670 mmHg 94%

    3 Aprilie, Luni

    Timp Temperatura Precipitaţii Vânt Presiune Umiditate
    00:00 +21°C° 0 mm 1 m/s 669 mmHg 94%
    01:00 +21°C° 0 mm 1 m/s 669 mmHg 95%
    02:00 +20°C° 0,1 mm 1 m/s 669 mmHg 95%
    03:00 +20°C° 0,1 mm 1 m/s 669 mmHg 95%
    04:00 +20°C° 0,1 mm 1 m/s 669 mmHg 96%
    05:00 +21°C° 0 mm 1 m/s 670 mmHg 94%
    06:00 +21°C° 0 mm 1 m/s 670 mmHg 93%
    07:00 +22°C° 0 mm 1 m/s 671 mmHg 91%
    08:00 +24°C° 0 mm 2 m/s 671 mmHg 82%
    09:00 +26°C° 0 mm 2 m/s 672 mmHg 72%
    10:00 +28°C° 0 mm 3 m/s 672 mmHg 63%
    11:00 +29°C° 0,1 mm 3 m/s 671 mmHg 61%
    12:00 +29°C° 0,1 mm 3 m/s 671 mmHg 59%
    13:00 +30°C° 0,1 mm 3 m/s 670 mmHg 57%
    14:00 +29°C° 0,4 mm 2 m/s 670 mmHg 62%
    15:00 +29°C° 0,4 mm 2 m/s 670 mmHg 67%
    16:00 +28°C° 0,4 mm 2 m/s 669 mmHg 72%
    17:00 +26°C° 0,1 mm 2 m/s 669 mmHg 78%
    18:00 +24°C° 0,1 mm 1 m/s 669 mmHg 83%
    19:00 +23°C° 0,1 mm 1 m/s 669 mmHg 89%
    20:00 +22°C° 0 mm 1 m/s 669 mmHg 89%
    21:00 +21°C° 0 mm 1 m/s 669 mmHg 90%
    22:00 +19°C° 0 mm 0 m/s 670 mmHg 91%
    23:00 +21°C° 0 mm 1 m/s 669 mmHg 89%
    Arată mai mult